Saint Martin Island, Sint Maarten

12:22 AM AST on December 11, 2016 (GMT -0400)
Princess Juliana International

Weather History for TNCM - November, 2013

Change the Weather History Date:

Saturday, November 2, 2013

  Actual Average Record
Temperature  
Mean Temperature 82 °F -  
Max Temperature 84 °F 84 °F 88 °F (2012)
Min Temperature 80 °F 74 °F 35 °F (1996)
Cooling Degree Days 17    
Growing Degree Days 32 (Base 50)    
Moisture  
Dew Point 75 °F    
Average Humidity 77    
Maximum Humidity 84    
Minimum Humidity 70    
Precipitation  
Precipitation 0.04 in 0.17 in - ()
Sea Level Pressure  
Sea Level Pressure 29.92 in    
Wind  
Wind Speed 13 mph ()    
Max Wind Speed 21 mph    
Max Gust Speed -    
Visibility 8.0 miles    
Events Rain , Thunderstorm    
Averages and records for this station are not official NWS values.
T = Trace of Precipitation, MM = Missing Value Source: Averaged Metar Reports

Daily Weather History Graph

Daily Weather History Graph

Search for Another Location

Airport or City:

Trip Planner

Search our weather history database for the weather conditions in past years. The results will help you decide how hot, cold, wet, or windy it might be!

Date:

Astronomy

Nov. 02, 2013 Rise Set
Actual Time 6:12 AM AST 5:39 PM AST
Civil Twilight 5:49 AM AST 6:02 PM AST
Nautical Twilight 5:23 AM AST 6:27 PM AST
Astronomical Twilight 4:58 AM AST 6:53 PM AST
Moon 5:11 AM AST (11/2) 5:04 PM AST (11/2)
Length of Visible Light 12h 12m
Length of Day
11h 27m
Waning Crescent, 1% of the Moon is Illuminated
Nov 2
Waning Crescent
Nov 3
New
Nov 10
First Quarter
Nov 17
Full
Nov 25
Last Quarter

Hourly Weather History & Observations

Time (AST) Temp. Heat Index Dew Point Humidity Pressure Visibility Wind Dir Wind Speed Gust Speed Precip Events Conditions
12:00 AM 82.4 °F 89.5 °F 75.2 °F 79% 29.92 in 6.2 mi SE 20.7 mph - N/A   Partly Cloudy
1:00 AM 82.4 °F 89.5 °F 75.2 °F 79% 29.92 in 6.2 mi SE 18.4 mph - N/A   Partly Cloudy
2:00 AM 81 °F - 75 °F 76% 29.91 in 16 mi ESE 12.7 mph - -   Partly Cloudy
2:00 AM 80.6 °F 86.2 °F 75.2 °F 84% 29.89 in 6.2 mi ESE 12.7 mph - N/A   Partly Cloudy
3:00 AM 80.6 °F 86.2 °F 75.2 °F 84% 29.89 in 6.2 mi SE 16.1 mph - N/A   Partly Cloudy
4:00 AM 80.6 °F 85.4 °F 73.4 °F 79% 29.89 in 6.2 mi SE 15.0 mph - N/A   Partly Cloudy
5:00 AM 81 °F - 74 °F 74% 29.90 in 16 mi ESE 15.0 mph - -   Partly Cloudy
5:00 AM 80.6 °F 85.4 °F 73.4 °F 79% 29.89 in 6.2 mi ESE 15.0 mph - N/A   Scattered Clouds
6:00 AM 82.4 °F 88.2 °F 73.4 °F 74% 29.92 in 6.2 mi SE 15.0 mph - N/A   Scattered Clouds
7:00 AM 82.4 °F 89.5 °F 75.2 °F 79% 29.92 in 6.2 mi ESE 11.5 mph - N/A   Scattered Clouds
8:00 AM 83 °F - 75 °F 70% 29.96 in 31 mi ESE 12.7 mph - -   Partly Cloudy
8:00 AM 82.4 °F 89.5 °F 75.2 °F 79% 29.95 in 6.2 mi ESE 12.7 mph - N/A   Scattered Clouds
9:00 AM 84.2 °F 92.3 °F 75.2 °F 74% 29.98 in 6.2 mi ESE 12.7 mph - N/A   Scattered Clouds
10:00 AM 84.2 °F 92.3 °F 75.2 °F 74% 29.98 in 6.2 mi SE 12.7 mph - N/A   Scattered Clouds
11:00 AM 80 °F - 75 °F 82% 29.99 in 6 mi East 12.7 mph - - Rain , Thunderstorm Thunderstorms and Rain
11:00 AM 80.6 °F 86.2 °F 75.2 °F 84% 29.98 in 6.2 mi East 12.7 mph - N/A Rain , Thunderstorm Light Thunderstorms and Rain
12:00 PM 82.4 °F 89.5 °F 75.2 °F 79% 29.95 in 6.2 mi ESE 8.1 mph - N/A   Scattered Clouds
1:00 PM 82.4 °F 90.9 °F 77.0 °F 84% 29.92 in 6.2 mi ESE 11.5 mph - N/A   Scattered Clouds
2:00 PM 82 °F - 74 °F 72% 29.91 in 19 mi ESE 9.2 mph - -  
2:00 PM 82.4 °F 89.5 °F 75.2 °F 79% 29.89 in 6.2 mi ESE 9.2 mph - N/A   Scattered Clouds
3:00 PM 82.4 °F 88.2 °F 73.4 °F 74% 29.89 in 6.2 mi ESE 10.4 mph - N/A   Partly Cloudy
4:00 PM 80.6 °F 86.2 °F 75.2 °F 84% 29.89 in 6.2 mi SE 17.3 mph - N/A Rain Light Rain Showers
5:00 PM 81 °F - 75 °F 77% 29.89 in 19 mi SE 16.1 mph - - Rain Light Rain Showers
5:00 PM 80.6 °F 86.2 °F 75.2 °F 84% 29.89 in 6.2 mi SE 16.1 mph - N/A   Scattered Clouds
6:00 PM 80.6 °F 85.4 °F 73.4 °F 79% 29.86 in 6.2 mi SE 13.8 mph - N/A   Mostly Cloudy
7:00 PM 80.6 °F 85.4 °F 73.4 °F 79% 29.89 in 6.2 mi ESE 9.2 mph - N/A   Mostly Cloudy
8:00 PM 82 °F - 74 °F 70% 29.94 in 12 mi ESE 9.2 mph - -   Partly Cloudy
8:00 PM 82.4 °F 88.2 °F 73.4 °F 74% 29.95 in 6.2 mi ESE 9.2 mph - N/A   Mostly Cloudy
9:00 PM 82.4 °F 88.2 °F 73.4 °F 74% 29.95 in 6.2 mi ESE 10.4 mph - N/A   Mostly Cloudy
10:00 PM 82.4 °F 88.2 °F 73.4 °F 74% 29.95 in 6.2 mi ESE 9.2 mph - N/A   Mostly Cloudy
11:00 PM 82 °F - 74 °F 70% 29.95 in 12 mi SE 10.4 mph - -   Overcast
11:00 PM 82.4 °F 88.2 °F 73.4 °F 74% 29.95 in 6.2 mi SE 10.4 mph - N/A   Mostly Cloudy